Hourly Weather Rubizhne

Today, 3 August, Tuesday

Time Temperature Precipitation Wind Pressure Humidity
00:00 +24°C° 0.1 mm 2 mps 747 mmHg 80%
01:00 +24°C° 0.1 mm 2 mps 747 mmHg 81%
02:00 +23°C° 0 mm 2 mps 747 mmHg 81%
03:00 +23°C° 0.2 mm 2 mps 747 mmHg 83%
04:00 +23°C° 0.2 mm 2 mps 747 mmHg 85%
05:00 +22°C° 0.2 mm 1 mps 747 mmHg 86%
06:00 +24°C° 0 mm 2 mps 747 mmHg 80%
07:00 +25°C° 0 mm 2 mps 748 mmHg 75%
08:00 +26°C° 0 mm 2 mps 748 mmHg 67%
09:00 +27°C° 0 mm 3 mps 748 mmHg 60%
10:00 +29°C° 0 mm 3 mps 748 mmHg 53%
11:00 +30°C° 0 mm 3 mps 748 mmHg 46%
12:00 +31°C° 0 mm 3 mps 748 mmHg 42%
13:00 +32°C° 0 mm 4 mps 748 mmHg 38%
14:00 +33°C° 0 mm 4 mps 748 mmHg 34%
15:00 +32°C° 0 mm 4 mps 748 mmHg 35%
16:00 +32°C° 0 mm 5 mps 748 mmHg 35%
17:00 +30°C° 0 mm 5 mps 748 mmHg 36%
18:00 +28°C° 0 mm 4 mps 748 mmHg 40%
19:00 +26°C° 0 mm 4 mps 749 mmHg 45%
20:00 +24°C° 0 mm 3 mps 749 mmHg 49%
21:00 +22°C° 0 mm 3 mps 750 mmHg 54%
22:00 +21°C° 0 mm 2 mps 750 mmHg 59%
23:00 +20°C° 0 mm 2 mps 750 mmHg 63%

Tomorrow, 4 August, Wednesday

Time Temperature Precipitation Wind Pressure Humidity
00:00 +20°C° 0 mm 2 mps 750 mmHg 65%
01:00 +20°C° 0 mm 2 mps 750 mmHg 66%
02:00 +21°C° 0 mm 1 mps 751 mmHg 67%
03:00 +20°C° 0 mm 1 mps 751 mmHg 69%
04:00 +20°C° 0 mm 1 mps 751 mmHg 70%
05:00 +20°C° 0 mm 1 mps 751 mmHg 72%
06:00 +22°C° 0 mm 1 mps 752 mmHg 63%
07:00 +24°C° 0 mm 1 mps 752 mmHg 55%
08:00 +26°C° 0 mm 1 mps 752 mmHg 46%
09:00 +27°C° 0 mm 2 mps 752 mmHg 41%
10:00 +28°C° 0 mm 3 mps 752 mmHg 36%
11:00 +30°C° 0 mm 3 mps 752 mmHg 31%
12:00 +30°C° 0 mm 4 mps 752 mmHg 28%
13:00 +32°C° 0 mm 4 mps 752 mmHg 26%
14:00 +32°C° 0 mm 5 mps 751 mmHg 24%
15:00 +32°C° 0 mm 5 mps 751 mmHg 24%
16:00 +30°C° 0 mm 5 mps 752 mmHg 24%
17:00 +29°C° 0 mm 5 mps 752 mmHg 24%
18:00 +27°C° 0 mm 4 mps 752 mmHg 29%
19:00 +25°C° 0 mm 4 mps 752 mmHg 33%
20:00 +22°C° 0 mm 3 mps 752 mmHg 38%
21:00 +21°C° 0 mm 3 mps 752 mmHg 41%
22:00 +20°C° 0 mm 3 mps 752 mmHg 43%
23:00 +20°C° 0 mm 3 mps 753 mmHg 46%

Day after tomorrow, 5 August, Thursday

Time Temperature Precipitation Wind Pressure Humidity
00:00 +19°C° 0 mm 2 mps 752 mmHg 47%
01:00 +19°C° 0 mm 2 mps 752 mmHg 49%
02:00 +18°C° 0 mm 2 mps 752 mmHg 50%
03:00 +18°C° 0 mm 2 mps 752 mmHg 51%
04:00 +18°C° 0 mm 2 mps 752 mmHg 51%
05:00 +18°C° 0 mm 2 mps 752 mmHg 52%
06:00 +21°C° 0 mm 2 mps 752 mmHg 46%
07:00 +25°C° 0 mm 3 mps 752 mmHg 39%
08:00 +27°C° 0 mm 3 mps 752 mmHg 33%
09:00 +29°C° 0 mm 3 mps 752 mmHg 31%
10:00 +30°C° 0 mm 3 mps 752 mmHg 28%
11:00 +31°C° 0 mm 3 mps 752 mmHg 26%
12:00 +33°C° 0 mm 3 mps 751 mmHg 25%
13:00 +33°C° 0 mm 3 mps 751 mmHg 24%
14:00 +34°C° 0 mm 3 mps 750 mmHg 24%
15:00 +33°C° 0 mm 3 mps 750 mmHg 25%
16:00 +33°C° 0 mm 3 mps 750 mmHg 26%
17:00 +31°C° 0 mm 3 mps 750 mmHg 27%
18:00 +30°C° 0 mm 3 mps 750 mmHg 30%
19:00 +28°C° 0 mm 3 mps 749 mmHg 34%
20:00 +27°C° 0 mm 3 mps 749 mmHg 37%
21:00 +26°C° 0 mm 3 mps 749 mmHg 40%
22:00 +25°C° 0 mm 3 mps 749 mmHg 42%
23:00 +24°C° 0 mm 3 mps 749 mmHg 45%

6 August, Friday

Time Temperature Precipitation Wind Pressure Humidity
00:00 +22°C° 0 mm 3 mps 749 mmHg 46%
01:00 +21°C° 0 mm 3 mps 749 mmHg 48%
02:00 +21°C° 0 mm 3 mps 749 mmHg 49%
03:00 +21°C° 0 mm 3 mps 749 mmHg 49%
04:00 +21°C° 0 mm 3 mps 749 mmHg 49%
05:00 +21°C° 0 mm 3 mps 749 mmHg 49%
06:00 +24°C° 0 mm 3 mps 748 mmHg 42%
07:00 +27°C° 0 mm 4 mps 748 mmHg 35%
08:00 +30°C° 0 mm 5 mps 748 mmHg 28%
09:00 +33°C° 0 mm 6 mps 748 mmHg 25%
10:00 +35°C° 0 mm 7 mps 747 mmHg 23%
11:00 +36°C° 0 mm 7 mps 747 mmHg 21%
12:00 +38°C° 0 mm 7 mps 747 mmHg 21%
13:00 +38°C° 0 mm 7 mps 746 mmHg 22%
14:00 +39°C° 0 mm 6 mps 746 mmHg 23%
15:00 +38°C° 0 mm 6 mps 746 mmHg 23%
16:00 +37°C° 0 mm 5 mps 746 mmHg 24%
17:00 +37°C° 0 mm 5 mps 745 mmHg 25%
18:00 +35°C° 0 mm 4 mps 745 mmHg 29%
19:00 +32°C° 0 mm 4 mps 745 mmHg 32%
20:00 +29°C° 0 mm 3 mps 745 mmHg 36%
21:00 +28°C° 0 mm 3 mps 745 mmHg 38%
22:00 +27°C° 0 mm 3 mps 745 mmHg 40%
23:00 +26°C° 0 mm 3 mps 745 mmHg 41%

7 August, Saturday

Time Temperature Precipitation Wind Pressure Humidity
00:00 +26°C° 0 mm 3 mps 745 mmHg 41%
01:00 +25°C° 0 mm 3 mps 745 mmHg 40%
02:00 +25°C° 0 mm 4 mps 744 mmHg 39%
03:00 +25°C° 0.2 mm 4 mps 744 mmHg 47%
04:00 +23°C° 0.2 mm 4 mps 745 mmHg 54%
05:00 +22°C° 0.2 mm 4 mps 745 mmHg 62%
06:00 +23°C° 0.6 mm 4 mps 745 mmHg 60%
07:00 +25°C° 0.6 mm 5 mps 745 mmHg 59%
08:00 +26°C° 0.6 mm 5 mps 745 mmHg 57%
09:00 +28°C° 0.4 mm 5 mps 745 mmHg 48%
10:00 +32°C° 0.4 mm 5 mps 745 mmHg 39%
11:00 +34°C° 0.4 mm 5 mps 745 mmHg 30%
12:00 +35°C° 0.1 mm 5 mps 744 mmHg 29%
13:00 +35°C° 0.1 mm 5 mps 744 mmHg 29%
14:00 +36°C° 0.1 mm 5 mps 744 mmHg 29%
15:00 +36°C° 0 mm 5 mps 744 mmHg 28%
16:00 +36°C° 0 mm 6 mps 744 mmHg 27%
17:00 +36°C° 0 mm 6 mps 744 mmHg 26%
18:00 +34°C° 0.1 mm 4 mps 744 mmHg 32%
19:00 +31°C° 0.1 mm 3 mps 744 mmHg 39%
20:00 +28°C° 0.1 mm 2 mps 745 mmHg 45%
21:00 +28°C° 0 mm 1 mps 745 mmHg 47%
22:00 +27°C° 0 mm 1 mps 745 mmHg 50%
23:00 +26°C° 0 mm 1 mps 745 mmHg 52%

8 August, Sunday

Time Temperature Precipitation Wind Pressure Humidity
00:00 +26°C° 0 mm 1 mps 745 mmHg 54%
01:00 +25°C° 0 mm 1 mps 746 mmHg 56%
02:00 +25°C° 0 mm 1 mps 746 mmHg 57%
03:00 +25°C° 0 mm 1 mps 746 mmHg 57%
04:00 +24°C° 0 mm 1 mps 746 mmHg 57%
05:00 +24°C° 0 mm 2 mps 746 mmHg 57%
06:00 +26°C° 0.1 mm 2 mps 746 mmHg 52%
07:00 +28°C° 0.1 mm 2 mps 746 mmHg 48%
08:00 +30°C° 0.1 mm 2 mps 746 mmHg 43%
09:00 +31°C° 0 mm 2 mps 746 mmHg 39%
10:00 +34°C° 0 mm 2 mps 746 mmHg 36%
11:00 +35°C° 0 mm 3 mps 747 mmHg 32%
12:00 +36°C° 0 mm 3 mps 747 mmHg 32%
13:00 +36°C° 0 mm 3 mps 747 mmHg 31%
14:00 +37°C° 0 mm 3 mps 747 mmHg 30%
15:00 +36°C° 0 mm 4 mps 747 mmHg 33%
16:00 +35°C° 0 mm 5 mps 747 mmHg 35%
17:00 +35°C° 0 mm 5 mps 747 mmHg 37%
18:00 +32°C° 0 mm 5 mps 747 mmHg 47%
19:00 +29°C° 0 mm 5 mps 748 mmHg 56%
20:00 +27°C° 0 mm 6 mps 748 mmHg 65%
21:00 +25°C° 0.3 mm 5 mps 748 mmHg 73%
22:00 +23°C° 0.3 mm 5 mps 749 mmHg 81%
23:00 +22°C° 0.3 mm 4 mps 749 mmHg 89%
Show more

We Need Your Consent

Meteoprog and our Service Providers may store and access personal data such as cookies, device identifiers or other similar technologies on your device and process such data to personalise content and ads, as well as provide social media features and to analyse the traffic.

  • Store and/or access information on your device

    Cookies, device identifiers or other information can be stored or accessed on your device for the purposes indicated above.

  • Personalised ads and content, ad and content measurement, audience insights, and products development

    Ads and content can be personalised based on a profile. More data can be added to better personalise ads and content. Ad and content performance can be measured. Insights about the audience who saw the ads and content can be derived. Such data can be used to develop or improve user’s experience, systems and software.

By clicking ‘I Agree’ you will allow the use of indicated cookies, device identifiers, web beacons or other similar technologies. Your settings can be changed in the browser on your device.

For certain purposes, legitimate interests may be relied on, rather than consent. You can read more about this in our Privacy and Cookie Policy.